Date,TemperatureHighF,TemperatureAvgF,TemperatureLowF,DewpointHighF,DewpointAvgF,DewpointLowF,HumidityHigh,HumidityAvg,HumidityLow,PressureMaxIn,PressureMinIn,WindSpeedMaxMPH,WindSpeedAvgMPH,GustSpeedMaxMPH,PrecipitationSumIn
2013-1-1,49,32,17,28,20,15,93,67,34,30.35,30.19,6,1,7,0.00
2013-1-2,55,35,19,25,20,15,89,59,27,30.25,30.08,9,2,9,0.00
2013-1-3,53,35,20,32,23,16,85,64,34,30.31,30.12,11,2,11,0.00
2013-1-4,51,36,23,28,24,20,89,65,39,30.37,30.24,8,1,8,0.00
2013-1-5,60,37,20,29,18,6,91,56,12,30.45,30.29,7,1,8,0.00
2013-1-6,60,39,21,22,18,13,76,47,17,30.34,30.03,13,3,13,0.00
2013-1-7,59,39,20,26,21,15,84,54,18,30.03,29.82,13,3,13,0.00
2013-1-8,58,42,25,28,23,18,82,51,24,30.16,29.93,12,2,13,0.00
2013-1-9,65,42,23,25,17,12,77,44,14,30.34,30.13,7,2,7,0.00
2013-1-10,66,46,26,26,19,16,71,39,15,30.14,29.84,21,6,21,0.00
2013-1-11,54,38,20,32,19,7,88,49,25,30.03,29.85,21,5,21,0.00
2013-1-12,41,26,13,14,7,1,74,48,19,30.25,30.01,15,2,16,0.00
2013-1-13,43,26,9,12,4,-3,76,44,17,30.28,30.09,15,2,15,0.00
2013-1-14,40,25,10,8,2,-1,65,40,21,30.32,30.16,15,3,15,0.00
2013-1-15,41,23,6,5,-1,-4,67,39,17,30.53,30.32,10,2,13,0.00
2013-1-16,56,33,11,5,0,-4,52,29,11,30.57,30.36,14,2,14,0.00
2013-1-17,63,40,19,15,8,2,50,31,13,30.44,30.25,11,2,11,0.00
2013-1-18,69,42,22,19,13,8,58,35,10,30.37,30.17,9,2,9,0.00
2013-1-19,72,47,27,27,17,10,56,34,12,30.32,30.14,11,2,11,0.00
2013-1-20,74,49,29,31,23,17,62,40,18,30.23,30.01,8,2,8,0.00
2013-1-21,74,52,34,31,26,21,70,41,17,30.14,30.00,9,2,9,0.00
2013-1-22,75,52,33,34,26,21,75,42,16,30.21,30.07,8,2,8,0.00
2013-1-23,76,52,32,32,25,21,67,40,16,30.28,30.11,8,2,8,0.00
2013-1-24,66,53,42,44,36,26,73,52,32,30.23,30.12,7,1,7,0.00
2013-1-25,72,58,42,49,41,37,84,57,33,30.20,29.96,13,2,13,0.00
2013-1-26,68,57,51,55,50,44,94,77,49,29.97,29.83,20,4,23,0.22
2013-1-27,53,50,46,50,48,44,96,93,87,29.98,29.93,7,1,7,0.03
2013-1-29,46,40,28,28,21,16,76,47,31,30.24,30.05,24,7,24,0.05
2013-1-30,54,36,22,27,19,12,90,58,20,30.43,30.24,9,1,9,0.00
2013-1-31,59,39,23,27,23,19,88,58,25,30.35,30.19,8,2,8,0.00
2013-2-1,69,45,25,29,23,12,86,51,12,30.31,30.16,9,2,9,0.00
2013-2-2,74,49,28,31,23,15,82,44,11,30.32,30.14,8,2,8,0.00
2013-2-3,66,52,43,38,30,19,69,45,17,30.18,29.94,12,2,12,0.00
2013-2-4,68,52,37,39,36,33,87,59,30,30.04,29.90,10,2,13,0.00
2013-2-5,67,52,43,40,37,33,74,56,32,29.95,29.89,13,2,13,0.00
2013-2-6,67,50,31,38,33,28,91,57,27,30.03,29.88,15,2,15,0.00
2013-2-7,67,48,30,38,29,23,89,53,19,30.13,29.96,8,1,9,0.00
2013-2-8,69,50,28,28,19,-10,80,37,4,30.00,29.76,19,5,20,0.00
2013-2-9,48,42,34,32,26,18,89,53,30,29.97,29.75,19,5,19,0.00
2013-2-11,52,40,16,34,22,9,90,52,30,30.11,30.01,18,5,18,0.00
2013-2-13,59,44,20,27,19,12,90,43,16,30.30,30.13,9,2,9,0.00
2013-2-14,63,42,20,24,19,14,84,47,15,30.21,30.06,12,2,12,0.00
2013-2-15,66,45,28,27,14,-7,73,37,5,30.32,30.19,14,2,15,0.00
2013-2-16,71,45,23,18,9,-5,57,30,5,30.37,30.08,8,1,9,0.00
2013-2-17,72,50,27,15,8,-5,48,23,5,30.10,29.83,17,4,17,0.00
2013-2-18,67,48,27,16,11,6,53,26,9,30.08,29.91,9,2,11,0.00
2013-2-19,68,49,27,36,21,11,56,36,16,29.98,29.72,26,5,26,0.00
2013-2-20,51,39,29,32,28,17,96,69,27,29.96,29.58,25,5,32,0.01
2013-2-21,49,36,20,40,30,18,96,79,47,30.13,29.95,9,2,9,0.09
2013-2-22,52,40,28,36,30,26,95,70,39,30.18,30.03,17,3,18,0.00
2013-2-23,63,43,24,30,25,18,92,56,18,30.19,29.87,13,2,13,0.00
2013-2-24,48,40,22,27,16,2,72,41,17,30.12,29.80,26,6,28,0.00
2013-2-25,55,36,18,18,14,9,74,44,16,30.30,30.11,12,2,12,0.00
2013-2-26,61,41,20,19,13,6,77,39,12,30.14,29.98,17,3,17,0.00
2013-2-27,60,42,20,16,8,-5,71,33,7,30.26,30.12,9,2,11,0.00
2013-2-28,62,41,19,14,4,-20,67,29,4,30.37,30.25,13,2,14,0.00
2013-3-1,71,46,21,18,11,5,60,30,8,30.42,30.23,13,2,13,0.00
2013-3-2,80,53,30,22,14,2,54,29,5,30.38,30.11,9,2,9,0.00
2013-3-3,78,57,31,21,14,-4,54,23,4,30.16,29.91,19,3,19,0.00
2013-3-4,71,57,37,36,23,13,65,29,13,30.04,29.80,19,4,20,0.01
2013-3-5,76,55,29,29,23,14,71,35,11,30.15,29.98,16,2,17,0.00
2013-3-6,81,60,42,28,24,3,51,29,6,30.02,29.82,15,3,20,0.00
2013-3-7,76,56,35,29,21,12,64,32,9,29.94,29.83,17,3,19,0.00
2013-3-8,63,53,42,43,34,20,76,50,32,29.91,29.71,25,6,29,0.00
2013-3-9,51,44,35,35,32,27,80,62,42,30.09,29.90,18,4,18,0.00
2013-3-10,61,47,35,37,30,22,87,56,26,30.17,30.06,14,3,14,0.00
2013-3-11,72,50,27,30,22,9,81,41,9,30.22,30.01,10,2,11,0.00
2013-3-12,79,55,31,31,20,8,68,32,7,30.12,29.97,9,2,9,0.00
2013-3-13,83,61,34,23,18,8,57,24,6,30.17,29.99,12,2,12,0.00
2013-3-14,86,63,38,23,13,-5,48,20,3,30.15,29.95,10,2,10,0.00
2013-3-15,89,64,40,25,10,-24,40,19,1,30.04,29.82,16,3,19,0.00
2013-3-16,85,64,39,25,11,-16,54,18,2,29.89,29.66,18,3,20,0.00
2013-3-17,79,62,37,24,16,8,37,18,9,29.88,29.72,26,4,26,0.00
2013-3-18,78,59,35,33,21,5,60,27,7,29.96,29.83,17,3,17,0.00
2013-3-19,75,58,41,30,24,18,49,30,14,30.03,29.90,19,3,19,0.00
2013-3-20,80,61,40,29,25,22,60,29,12,30.06,29.83,15,3,15,0.00
2013-3-21,76,61,42,32,27,16,52,30,13,29.83,29.66,18,3,18,0.00
2013-3-22,77,66,54,31,24,12,36,21,9,29.72,29.58,20,5,20,0.00
2013-3-23,71,58,44,30,18,6,48,24,8,29.94,29.72,21,4,21,0.00
2013-3-24,72,54,31,13,4,-17,43,17,4,30.01,29.83,15,3,17,0.00
2013-3-25,77,56,35,17,8,3,33,17,7,30.02,29.87,10,2,12,0.00
2013-3-26,83,61,40,15,9,-7,33,17,3,30.01,29.79,15,3,16,0.00
2013-3-27,82,62,42,28,17,5,36,20,6,29.95,29.82,15,3,15,0.00
2013-3-28,81,62,42,33,23,12,50,25,8,30.01,29.88,14,3,17,0.00
2013-3-29,82,65,42,29,22,12,43,21,10,30.06,29.89,14,2,14,0.00
2013-3-30,80,64,47,30,20,9,40,20,7,30.02,29.84,16,3,17,0.00
2013-3-31,82,62,41,28,24,19,47,26,11,30.00,29.83,14,2,14,0.00
2013-4-1,80,62,41,32,26,20,51,27,13,29.97,29.80,21,4,21,0.00
2013-4-2,74,58,40,25,18,-2,52,24,5,29.91,29.79,17,4,19,0.00
2013-4-3,78,59,39,27,20,16,43,24,12,30.03,29.90,15,2,15,0.00
2013-4-4,84,65,41,28,16,0,44,20,4,30.08,29.86,11,2,11,0.00
2013-4-5,84,67,47,29,20,12,36,19,7,29.92,29.73,17,4,25,0.00
2013-4-6,82,66,45,34,28,21,54,27,11,29.91,29.72,16,3,16,0.00
2013-4-8,80,70,51,40,32,23,63,26,13,29.60,29.28,34,14,34,0.00
2013-4-9,61,50,41,40,29,18,84,48,19,29.88,29.46,19,5,26,0.00
2013-4-10,64,52,36,29,24,18,65,36,20,30.00,29.88,21,4,21,0.00
2013-4-11,76,56,33,28,21,12,60,31,9,30.01,29.75,13,3,13,0.00
2013-4-12,80,61,43,26,20,14,39,22,9,29.80,29.65,13,3,15,0.00
2013-4-13,80,64,39,29,20,14,49,22,9,29.83,29.66,17,3,17,0.00
2013-4-14,82,66,45,35,28,21,48,26,11,29.75,29.59,17,5,17,0.00
2013-4-15,84,70,58,38,29,13,39,24,8,29.70,29.59,21,8,21,0.00
2013-4-16,82,69,52,44,29,3,55,28,5,29.72,29.61,24,6,24,0.00
2013-4-17,66,58,44,45,26,8,55,31,14,29.94,29.64,22,5,22,0.00
2013-4-18,66,51,29,17,7,-12,46,20,4,30.15,29.93,16,3,16,0.00
2013-4-19,77,54,29,12,-4,-33,42,15,1,30.23,29.93,11,2,15,0.00
2013-4-20,80,58,33,20,5,-9,31,15,3,29.99,29.84,20,3,20,0.00
2013-4-21,85,64,38,21,9,-13,39,16,2,30.04,29.86,14,3,17,0.00
2013-4-22,88,67,43,23,9,-13,42,14,2,29.95,29.72,18,3,21,0.00
2013-4-23,85,68,44,25,14,4,40,15,5,29.83,29.68,19,3,21,0.00
2013-4-24,88,69,43,26,16,-4,46,17,3,29.89,29.73,14,3,15,0.00
2013-4-25,83,70,56,37,19,0,44,17,5,29.93,29.72,26,6,26,0.00
2013-4-26,84,65,40,27,12,-28,47,19,1,30.05,29.91,13,2,13,0.00
2013-4-27,86,68,43,28,14,-13,39,17,2,30.04,29.81,11,2,11,0.00
2013-4-28,90,70,46,25,11,-24,36,15,1,29.87,29.66,10,2,11,0.00
2013-4-29,92,70,46,24,8,-23,32,14,1,29.79,29.59,14,2,14,0.00
2013-4-30,91,73,48,28,15,-1,37,15,3,29.74,29.59,16,3,16,0.00
2013-5-1,86,69,48,28,18,1,43,18,5,29.92,29.70,16,3,16,0.00
2013-5-2,84,67,42,25,19,3,49,19,6,30.06,29.92,15,3,15,0.00
2013-5-3,83,64,42,26,16,3,50,19,5,30.08,29.75,17,3,17,0.00
2013-5-4,88,71,47,31,20,8,36,17,5,29.79,29.63,17,4,17,0.00
2013-5-5,86,73,58,35,27,11,31,19,7,29.81,29.66,17,5,21,0.00
2013-5-6,83,68,53,44,36,28,59,33,15,29.86,29.76,16,4,16,0.00
2013-5-7,81,66,45,38,31,22,69,30,12,29.92,29.75,18,4,18,0.00
2013-5-8,80,65,45,39,33,10,69,34,7,29.94,29.80,16,3,16,0.00
2013-5-9,81,65,44,40,32,22,70,33,13,29.92,29.78,16,2,16,0.00
2013-5-10,82,64,46,37,32,25,54,33,13,30.02,29.84,17,2,22,0.00
2013-5-11,81,65,44,39,35,29,72,37,18,30.07,29.96,19,2,19,0.00
2013-5-12,84,67,44,40,32,23,72,33,11,30.11,29.90,16,3,16,0.00
2013-5-13,88,70,46,36,25,8,51,22,7,30.04,29.84,13,2,14,0.00
2013-5-14,92,74,48,38,32,19,62,26,9,29.94,29.74,25,2,25,0.00
2013-5-15,92,76,53,40,32,26,56,23,10,29.90,29.71,20,3,21,0.00
2013-5-16,94,74,49,38,25,6,57,21,4,29.85,29.66,15,2,15,0.00
2013-5-17,92,73,48,39,23,-1,56,21,3,29.81,29.69,14,3,16,0.00
2013-5-18,88,73,54,39,25,-5,45,21,3,29.83,29.69,18,3,18,0.00
2013-5-19,86,70,45,41,31,20,64,28,10,29.83,29.67,17,3,19,0.00
2013-5-20,87,71,51,41,28,18,47,23,8,29.82,29.68,24,3,24,0.00
2013-5-21,92,70,44,29,18,-3,52,19,3,29.87,29.69,15,2,15,0.00
2013-5-22,95,74,47,28,18,-7,42,16,2,29.77,29.59,14,2,14,0.00
2013-5-23,95,74,45,34,18,-23,52,19,1,29.76,29.64,16,3,16,0.00
2013-5-24,95,74,49,43,21,-21,58,22,1,29.84,29.70,14,2,14,0.00
2013-5-25,94,73,46,35,19,-7,44,18,2,29.87,29.74,14,2,21,0.00
2013-5-26,94,73,45,33,13,-22,49,17,1,29.88,29.75,16,2,18,0.00
2013-5-27,93,73,45,30,12,-28,43,15,1,29.82,29.62,13,2,14,0.00
2013-5-28,92,74,49,31,17,-23,35,15,2,29.69,29.49,19,3,19,0.00
2013-5-29,88,72,46,42,31,16,55,25,8,29.67,29.55,18,3,19,0.00
2013-5-30,92,76,61,54,40,28,64,32,11,29.73,29.61,15,3,17,0.00
2013-5-31,94,78,56,55,42,26,69,32,9,29.78,29.64,17,2,17,0.00
2013-6-1,101,79,54,43,33,16,54,25,5,29.75,29.57,9,2,9,0.00
2013-6-2,95,71,56,43,37,32,52,31,13,29.70,29.66,6,1,6,0.00
2013-6-3,75,71,68,37,34,30,31,25,20,29.70,29.65,3,1,3,0.00
2013-6-4,99,82,56,45,33,23,46,20,7,29.75,29.62,16,3,16,0.00
2013-6-5,96,77,56,41,26,2,46,19,3,29.77,29.62,16,2,16,0.00
2013-6-6,99,78,52,34,22,4,36,17,3,29.75,29.59,11,2,12,0.00
2013-6-7,103,81,55,38,27,-2,41,18,2,29.71,29.50,12,2,12,0.00
2013-6-8,99,84,60,42,25,10,38,15,4,29.70,29.59,19,4,19,0.00
2013-6-9,99,83,58,44,27,9,50,17,4,29.75,29.63,17,3,17,0.00
2013-6-10,102,84,59,37,25,11,32,14,4,29.79,29.63,13,3,14,0.00
2013-6-11,103,85,60,38,24,10,37,14,4,29.76,29.60,15,3,15,0.00
2013-6-12,103,85,60,48,30,22,34,16,6,29.81,29.62,18,3,18,0.00
2013-6-13,99,85,64,52,41,31,49,23,12,29.76,29.59,19,4,19,0.00
2013-6-14,99,82,65,57,49,37,56,33,15,29.73,29.58,15,2,17,0.00
2013-6-15,98,75,60,72,58,49,92,61,20,29.81,29.68,18,2,18,0.38
2013-6-16,98,81,60,63,52,30,96,47,15,29.86,29.70,11,2,11,0.00
2013-6-17,100,81,57,47,34,16,64,24,6,29.81,29.64,11,2,15,0.00
2013-6-18,101,79,52,39,17,-21,57,19,1,29.78,29.62,13,2,15,0.00
2013-6-19,102,80,53,38,24,-5,52,18,2,29.72,29.56,20,3,21,0.00
2013-6-20,101,79,53,37,17,-21,45,17,1,29.74,29.61,19,2,19,0.00
2013-6-21,101,80,54,46,28,-17,60,23,2,29.78,29.65,16,3,16,0.00
2013-6-22,100,79,53,44,26,-4,58,21,2,29.77,29.61,16,2,16,0.00
2013-6-23,99,79,52,40,30,20,54,21,6,29.75,29.58,18,3,18,0.00
2013-6-24,98,80,58,45,34,25,48,23,8,29.76,29.62,19,3,19,0.00
2013-6-25,98,79,54,45,28,12,51,21,5,29.83,29.71,15,2,19,0.00
2013-6-26,98,80,53,42,24,4,45,18,3,29.92,29.78,17,3,17,0.00
2013-6-27,101,83,59,43,32,22,34,17,8,29.94,29.75,16,3,17,0.00
2013-6-28,106,86,64,44,34,26,37,18,7,29.82,29.64,13,2,13,0.00
2013-6-29,105,84,64,62,43,30,52,28,8,29.78,29.60,8,1,9,0.00
2013-6-30,104,86,70,65,50,37,81,35,11,29.75,29.51,15,3,17,0.27
2013-7-1,99,83,68,66,58,43,86,49,15,29.79,29.63,15,2,16,0.00
2013-7-2,97,81,66,64,59,52,86,51,24,29.93,29.68,21,3,29,0.14
2013-7-3,98,81,62,62,56,49,90,48,20,29.84,29.57,15,3,15,0.00
2013-7-4,99,85,71,62,56,48,69,42,20,29.72,29.53,19,4,22,0.00
2013-7-5,96,76,65,67,63,55,96,68,29,29.74,29.59,33,2,33,0.75
2013-7-6,96,80,63,69,62,56,97,60,27,29.74,29.57,8,2,9,0.00
2013-7-7,101,83,68,67,61,50,82,52,20,29.74,29.55,16,2,16,0.00
2013-7-8,101,83,71,67,61,52,80,51,21,29.79,29.66,11,2,15,0.00
2013-7-9,95,82,68,69,65,60,91,59,34,29.87,29.67,17,4,20,0.03
2013-7-10,94,78,67,70,66,60,94,70,34,29.87,29.69,17,2,17,0.58
2013-7-11,91,76,66,74,67,63,95,75,43,29.87,29.72,13,2,15,0.13
2013-7-12,92,79,68,69,63,54,94,63,30,29.84,29.67,10,2,12,0.03
2013-7-13,96,80,70,69,63,56,92,60,29,29.82,29.64,15,3,16,0.24
2013-7-14,99,83,68,69,62,54,87,55,24,29.82,29.63,13,2,14,0.00
2013-7-15,96,82,69,67,63,58,89,54,29,29.77,29.55,15,2,15,0.05
2013-7-16,84,71,67,68,66,63,96,85,52,29.93,29.76,15,2,15,0.20
2013-7-17,92,78,66,69,62,53,97,64,29,29.97,29.80,22,2,22,0.00
2013-7-18,86,77,63,62,60,58,89,58,41,29.90,29.75,14,2,14,0.00
2013-7-19,82,74,67,67,64,61,91,72,52,29.83,29.70,9,1,9,0.00
2013-7-20,87,74,64,71,66,62,95,76,47,29.80,29.66,16,2,16,0.10
2013-7-21,89,76,65,68,66,61,97,72,40,29.81,29.70,12,2,14,0.01
2013-7-22,88,78,65,68,64,60,95,65,41,29.85,29.74,17,2,17,0.00
2013-7-23,92,79,67,66,63,58,88,59,35,29.86,29.69,18,3,23,0.01
2013-7-24,89,75,68,72,66,62,95,77,42,29.83,29.71,9,2,12,0.33
2013-7-25,90,74,68,71,68,63,96,83,48,29.92,29.80,12,1,13,0.02
2013-7-26,90,74,65,70,67,63,97,80,43,30.00,29.89,15,1,17,0.02
2013-7-27,90,75,65,69,66,61,97,76,40,29.93,29.76,12,1,13,0.03
2013-7-28,95,79,63,69,61,51,96,60,24,29.79,29.66,14,2,15,0.02
2013-7-29,95,79,63,65,57,49,88,52,22,29.89,29.76,12,2,14,0.00
2013-7-30,68,66,62,59,58,56,87,77,66,29.95,29.89,3,0,3,0.00
2013-8-29,69,69,68,68,67,67,96,95,92,29.98,29.95,1,0,3,0.76
2013-8-30,83,73,65,70,67,64,97,82,56,29.98,29.85,8,1,8,0.00
2013-8-31,92,77,61,68,64,59,97,68,37,29.92,29.73,14,1,14,0.01
2013-9-1,95,80,64,67,61,53,93,57,28,29.83,29.66,11,2,11,0.00
2013-9-2,98,80,68,66,60,53,78,54,23,29.83,29.63,16,2,17,0.00
2013-9-3,96,76,63,69,62,56,91,65,28,29.84,29.71,19,2,19,0.08
2013-9-4,96,77,60,66,57,46,96,59,21,29.88,29.76,12,2,14,0.00
2013-9-5,95,77,60,62,56,49,84,53,22,29.88,29.76,15,2,18,0.00
2013-9-6,95,78,61,62,56,48,81,52,22,29.87,29.72,12,2,14,0.00
2013-9-7,76,71,68,66,63,59,88,74,61,29.87,29.76,7,1,7,0.02
2013-9-8,84,70,65,68,65,62,95,84,52,29.83,29.68,9,1,13,0.22
2013-9-9,67,66,66,66,65,65,97,96,94,29.74,29.69,2,0,2,0.01
2013-10-6,85,71,35,30,23,16,63,19,8,30.15,29.98,10,2,14,0.00
2013-10-7,88,64,38,42,30,22,62,32,12,30.07,29.84,8,1,10,0.00
2013-10-8,86,66,47,40,34,26,60,34,14,29.89,29.72,11,2,14,0.00
2013-10-9,84,68,47,47,37,27,60,34,14,29.76,29.63,22,4,22,0.00
2013-10-28,78,66,46,35,29,19,51,28,12,29.89,29.77,16,4,19,0.00
2013-10-29,78,62,49,39,32,20,62,35,13,29.91,29.76,21,3,22,0.00
2013-10-30,68,52,37,45,36,27,83,55,35,30.03,29.83,15,3,16,0.00
2013-10-31,72,50,29,33,21,4,79,41,7,30.15,30.00,13,2,13,0.00
2013-11-1,77,51,29,30,18,12,52,32,11,30.20,30.02,6,1,6,0.00
2013-11-2,80,57,26,41,19,12,67,28,8,30.15,29.88,14,2,14,0.00
2013-11-3,77,62,46,51,44,36,92,56,28,29.92,29.67,14,2,14,0.01
2013-11-4,76,60,40,46,41,35,85,52,26,29.82,29.64,15,3,15,0.00
2013-11-5,68,57,40,46,40,34,84,55,34,30.09,29.75,15,3,15,0.00
2013-11-6,72,50,29,36,24,12,93,48,10,30.27,30.09,10,2,12,0.00
2013-11-7,48,32,28,19,17,14,59,52,30,30.32,30.26,4,0,4,0.00
2013-11-8,78,59,38,37,32,24,63,40,20,30.14,29.93,7,1,7,0.00
2013-11-9,80,56,38,38,33,28,68,47,20,30.13,29.98,7,1,7,0.00
2013-11-10,83,58,38,39,33,28,70,44,17,30.16,29.98,8,1,8,0.00
2013-11-11,82,61,40,41,34,29,67,41,20,30.11,29.94,8,2,11,0.00
2013-11-12,82,60,40,46,39,31,73,49,25,30.22,30.07,16,2,16,0.00
2013-11-13,73,58,46,45,41,38,77,55,35,30.22,29.97,11,2,11,0.00
2013-11-14,78,56,38,45,36,29,84,52,18,30.05,29.85,11,2,12,0.00
2013-11-15,71,60,40,50,42,29,78,53,33,29.87,29.61,22,4,22,0.00
2013-11-16,74,63,50,46,41,27,72,47,19,29.82,29.64,17,5,19,0.00
2013-11-17,74,55,36,46,40,33,93,61,31,30.03,29.82,11,1,11,0.00
2013-11-18,76,57,42,49,39,34,77,55,24,30.09,29.91,10,1,10,0.00
2013-11-19,77,55,37,42,33,27,76,48,18,30.01,29.81,9,1,12,0.00
2013-11-20,76,56,38,40,33,20,76,45,13,29.90,29.75,14,2,15,0.00
2013-11-21,74,60,44,47,41,32,66,51,30,29.91,29.78,19,4,19,0.00
2013-11-22,66,59,52,53,48,41,94,67,50,29.85,29.75,23,6,24,0.12
2013-11-23,52,46,42,44,40,37,90,79,67,30.09,29.83,15,4,17,0.15
2013-11-24,52,43,32,39,35,29,89,75,57,30.19,30.08,11,3,12,0.00
2013-11-25,57,40,26,39,32,24,95,75,44,30.31,30.16,11,1,12,0.00
2013-11-26,61,43,27,37,28,23,95,63,28,30.39,30.23,14,2,14,0.01
2013-11-27,57,44,33,29,26,23,78,52,27,30.30,30.08,7,2,9,0.00
2013-11-28,68,44,26,34,28,22,86,58,26,30.20,30.05,9,1,9,0.00
2013-11-29,73,49,30,43,35,27,92,63,27,30.25,30.07,9,1,9,0.00
2013-11-30,73,54,39,42,37,29,84,58,20,30.19,30.03,5,1,5,0.00
2013-12-1,71,54,39,41,37,31,82,58,24,30.18,30.06,5,0,6,0.00
2013-12-2,72,50,32,40,28,7,91,53,9,30.13,29.92,11,1,13,0.00
2013-12-3,73,52,29,43,28,12,75,47,10,29.94,29.73,12,2,13,0.00
2013-12-4,69,59,50,44,36,20,66,45,16,29.80,29.67,22,6,22,0.00
2013-12-5,51,42,32,40,36,30,95,80,60,30.08,29.75,13,3,13,0.03
2013-12-6,52,36,18,30,24,16,94,66,34,30.25,30.08,6,1,8,0.00
2013-12-7,59,46,26,31,23,16,86,43,20,30.17,30.01,10,2,11,0.00
2013-12-8,55,43,29,36,29,20,84,60,42,30.14,30.00,14,2,14,0.00
2013-12-9,51,40,24,37,23,10,83,54,19,30.34,30.06,10,2,10,0.00
2013-12-10,57,37,21,20,15,11,79,46,18,30.38,30.18,10,2,10,0.00
2013-12-11,68,47,27,41,24,15,71,44,26,30.32,30.17,13,2,13,0.00
2013-12-12,50,44,37,44,29,20,91,60,33,30.26,30.08,5,1,7,0.18
2013-12-13,59,43,27,36,31,26,94,67,35,30.20,30.07,11,2,11,0.00
2013-12-14,60,40,23,33,25,18,93,62,20,30.38,30.20,12,1,12,0.00
2013-12-15,65,42,23,28,21,16,84,51,16,30.41,30.24,8,1,8,0.00
2013-12-16,72,46,26,25,21,17,72,43,13,30.35,30.20,8,1,8,0.00
2013-12-17,76,49,30,25,22,18,64,39,13,30.33,30.13,6,2,8,0.00
2013-12-18,70,49,35,26,22,18,57,39,14,30.18,29.89,8,2,9,0.00
2013-12-19,67,54,31,27,21,12,69,31,12,29.90,29.69,20,5,20,0.00
2013-12-20,52,44,39,41,33,21,91,68,32,29.81,29.58,18,2,18,0.23
2013-12-21,50,43,37,39,36,30,92,77,48,30.05,29.80,16,2,16,0.03
2013-12-22,54,40,28,39,32,25,95,75,38,30.34,30.05,8,1,8,0.01
2013-12-23,60,40,24,34,26,22,93,63,28,30.46,30.33,11,1,11,0.00
2013-12-24,64,40,23,28,25,19,85,59,23,30.37,30.16,6,1,8,0.00
2013-12-25,64,43,25,31,25,21,88,56,25,30.35,30.19,11,2,15,0.00
2013-12-26,59,39,21,30,23,18,89,57,25,30.36,30.19,12,1,12,0.00
2013-12-27,62,39,22,26,20,16,83,52,17,30.36,30.19,7,1,7,0.00
2013-12-28,62,39,20,29,21,12,84,53,15,30.27,30.01,8,2,8,0.00
2013-12-29,62,46,29,28,24,16,78,47,18,30.07,29.97,6,1,6,0.00
2013-12-31,67,49,24,24,20,16,70,36,15,30.35,30.14,9,1,9,0.00
2014-1-1,68,44,24,22,18,16,73,42,15,30.23,30.08,8,2,8,0.00
2014-1-2,46,39,37,24,23,21,56,51,40,30.17,30.15,3,0,3,0.00